Time,TemperatureF,DewpointF,PressureIn,WindDirection,WindDirectionDegrees,WindSpeedMPH,WindSpeedGustMPH,Humidity,HourlyPrecipIn,Conditions,Clouds,dailyrainin,SoftwareType,DateUTC
2013-03-03 00:01:00,27.0,22.0,-100.00,SSE,155,9.0,12.0,83,0.00,,,-99.99,,2013-03-03 07:01:00,
2013-03-03 00:11:00,28.0,23.0,-100.00,SSE,155,8.0,11.0,82,0.00,,,-99.99,,2013-03-03 07:11:00,
2013-03-03 00:21:00,28.0,23.0,-100.00,SSE,155,8.0,11.0,82,0.00,,,-99.99,,2013-03-03 07:21:00,
2013-03-03 00:31:00,27.0,22.0,-100.00,South,170,5.0,7.0,82,0.00,,,-99.99,,2013-03-03 07:31:00,
2013-03-03 00:42:00,27.0,22.0,-100.00,SSE,160,2.0,11.0,82,0.00,,,-99.99,,2013-03-03 07:42:00,
2013-03-03 00:51:00,27.0,22.0,-100.00,SSE,150,7.0,12.0,82,0.00,,,-99.99,,2013-03-03 07:51:00,
2013-03-03 01:01:00,27.0,22.0,-100.00,South,170,7.0,11.0,82,0.00,,,-99.99,,2013-03-03 08:01:00,
2013-03-03 01:11:00,26.0,22.0,-100.00,SSE,155,9.0,11.0,82,0.00,,,-99.99,,2013-03-03 08:11:00,
2013-03-03 01:21:00,26.0,22.0,-100.00,SSE,155,3.0,9.0,82,0.00,,,-99.99,,2013-03-03 08:21:00,
2013-03-03 01:31:00,26.0,21.0,-100.00,SE,135,3.0,9.0,83,0.00,,,-99.99,,2013-03-03 08:31:00,
2013-03-03 01:41:00,25.0,21.0,-100.00,South,170,5.0,7.0,83,0.00,,,-99.99,,2013-03-03 08:41:00,
2013-03-03 01:53:00,25.0,21.0,-100.00,SE,145,4.0,8.0,84,0.00,,,-99.99,,2013-03-03 08:53:00,
2013-03-03 02:01:00,25.0,21.0,-100.00,SSE,160,4.0,6.0,85,0.00,,,-99.99,,2013-03-03 09:01:00,
2013-03-03 02:11:00,25.0,21.0,-100.00,SSE,150,4.0,11.0,85,0.00,,,-99.99,,2013-03-03 09:11:00,
2013-03-03 02:21:00,25.0,21.0,-100.00,ESE,120,4.0,8.0,85,0.00,,,-99.99,,2013-03-03 09:21:00,
2013-03-03 02:32:00,25.0,21.0,-100.00,SSE,150,6.0,7.0,85,0.00,,,-99.99,,2013-03-03 09:32:00,
2013-03-03 02:41:00,24.0,20.0,-100.00,SSE,155,6.0,11.0,85,0.00,,,-99.99,,2013-03-03 09:41:00,
2013-03-03 02:51:00,23.0,19.0,-100.00,SSE,160,6.0,9.0,85,0.00,,,-99.99,,2013-03-03 09:51:00,
2013-03-03 03:01:00,23.0,19.0,-100.00,SSE,160,4.0,7.0,85,0.00,,,-99.99,,2013-03-03 10:01:00,
2013-03-03 03:11:00,23.0,19.0,-100.00,SSE,155,6.0,7.0,85,0.00,,,-99.99,,2013-03-03 10:11:00,
2013-03-03 03:21:00,23.0,19.0,-100.00,SSE,165,5.0,7.0,85,0.00,,,-99.99,,2013-03-03 10:21:00,
2013-03-03 03:32:00,24.0,20.0,-100.00,SE,135,2.0,6.0,86,0.00,,,-99.99,,2013-03-03 10:32:00,
2013-03-03 03:42:00,24.0,20.0,-100.00,SE,145,6.0,7.0,86,0.00,,,-99.99,,2013-03-03 10:42:00,
2013-03-03 03:52:00,24.0,21.0,-100.00,SE,140,3.0,7.0,86,0.00,,,-99.99,,2013-03-03 10:52:00,
2013-03-03 04:01:00,24.0,20.0,-100.00,SSE,155,7.0,9.0,86,0.00,,,-99.99,,2013-03-03 11:01:00,
2013-03-03 04:11:00,25.0,21.0,-100.00,SSE,160,4.0,7.0,86,0.00,,,-99.99,,2013-03-03 11:11:00,
2013-03-03 04:21:00,24.0,21.0,-100.00,SSE,150,4.0,7.0,86,0.00,,,-99.99,,2013-03-03 11:21:00,
2013-03-03 04:32:00,24.0,21.0,-100.00,SSE,150,4.0,7.0,86,0.00,,,-99.99,,2013-03-03 11:32:00,
2013-03-03 04:42:00,24.0,21.0,-100.00,SSE,160,7.0,10.0,86,0.00,,,-99.99,,2013-03-03 11:42:00,
2013-03-03 04:52:00,24.0,20.0,-100.00,SSE,155,6.0,9.0,85,0.00,,,-99.99,,2013-03-03 11:52:00,
2013-03-03 05:01:00,25.0,21.0,-100.00,SSE,150,6.0,10.0,85,0.00,,,-99.99,,2013-03-03 12:01:00,
2013-03-03 05:11:00,25.0,21.0,-100.00,SSE,165,6.0,9.0,85,0.00,,,-99.99,,2013-03-03 12:11:00,
2013-03-03 05:21:00,25.0,21.0,-100.00,SSE,150,4.0,9.0,85,0.00,,,-99.99,,2013-03-03 12:21:00,
2013-03-03 05:32:00,24.0,20.0,-100.00,SSE,160,6.0,7.0,85,0.00,,,-99.99,,2013-03-03 12:32:00,
2013-03-03 05:42:00,24.0,20.0,-100.00,SSE,155,6.0,9.0,85,0.00,,,-99.99,,2013-03-03 12:42:00,
2013-03-03 05:52:00,24.0,20.0,-100.00,SSE,155,7.0,9.0,85,0.00,,,-99.99,,2013-03-03 12:52:00,
2013-03-03 06:01:00,24.0,20.0,-100.00,SSE,160,4.0,12.0,85,0.00,,,-99.99,,2013-03-03 13:01:00,
2013-03-03 06:11:00,25.0,21.0,-100.00,ESE,110,2.0,11.0,85,0.00,,,-99.99,,2013-03-03 13:11:00,
2013-03-03 06:21:00,25.0,21.0,-100.00,SSE,155,4.0,8.0,85,0.00,,,-99.99,,2013-03-03 13:21:00,
2013-03-03 06:32:00,25.0,21.0,-100.00,SE,145,5.0,9.0,85,0.00,,,-99.99,,2013-03-03 13:32:00,
2013-03-03 06:42:00,25.0,21.0,-100.00,SSE,165,5.0,7.0,85,0.00,,,-99.99,,2013-03-03 13:42:00,
2013-03-03 06:51:00,25.0,21.0,-100.00,SSE,150,4.0,7.0,84,0.00,,,-99.99,,2013-03-03 13:51:00,
2013-03-03 07:02:00,25.0,22.0,-100.00,SE,125,4.0,11.0,84,0.00,,,-99.99,,2013-03-03 14:02:00,
2013-03-03 07:11:00,26.0,22.0,-100.00,SSE,160,3.0,9.0,84,0.00,,,-99.99,,2013-03-03 14:11:00,
2013-03-03 07:21:00,26.0,22.0,-100.00,SSE,160,7.0,10.0,83,0.00,,,-99.99,,2013-03-03 14:21:00,
2013-03-03 07:32:00,26.0,22.0,-100.00,SSE,155,7.0,11.0,83,0.00,,,-99.99,,2013-03-03 14:32:00,
2013-03-03 07:42:00,28.0,23.0,-100.00,SSE,150,6.0,9.0,81,0.00,,,-99.99,,2013-03-03 14:42:00,
2013-03-03 07:52:00,29.0,23.0,-100.00,SSE,150,8.0,10.0,79,0.00,,,-99.99,,2013-03-03 14:52:00,
2013-03-03 08:01:00,29.0,23.0,-100.00,ESE,115,6.0,11.0,77,0.00,,,-99.99,,2013-03-03 15:01:00,
2013-03-03 08:11:00,30.0,23.0,-100.00,SSE,150,3.0,9.0,75,0.00,,,-99.99,,2013-03-03 15:11:00,
2013-03-03 08:22:00,31.0,24.0,-100.00,ESE,115,3.0,6.0,73,0.00,,,-99.99,,2013-03-03 15:22:00,
2013-03-03 08:32:00,32.0,24.0,-100.00,South,170,6.0,9.0,70,0.00,,,-99.99,,2013-03-03 15:32:00,
2013-03-03 08:42:00,33.0,24.0,-100.00,SSE,155,4.0,6.0,68,0.00,,,-99.99,,2013-03-03 15:42:00,
2013-03-03 08:52:00,33.0,23.0,-100.00,SE,145,3.0,7.0,66,0.00,,,-99.99,,2013-03-03 15:52:00,
2013-03-03 09:01:00,34.0,24.0,-100.00,SSE,155,5.0,6.0,65,0.00,,,-99.99,,2013-03-03 16:01:00,
2013-03-03 09:12:00,37.0,25.0,-100.00,ESE,105,3.0,6.0,61,0.00,,,-99.99,,2013-03-03 16:12:00,
2013-03-03 09:21:00,38.0,24.0,-100.00,ESE,110,3.0,9.0,55,0.00,,,-99.99,,2013-03-03 16:21:00,
2013-03-03 09:32:00,38.0,23.0,-100.00,East,95,4.0,6.0,54,0.00,,,-99.99,,2013-03-03 16:32:00,
2013-03-03 09:42:00,39.0,23.0,-100.00,SSE,155,4.0,7.0,52,0.00,,,-99.99,,2013-03-03 16:42:00,
2013-03-03 09:52:00,40.0,24.0,-100.00,NE,55,2.0,6.0,51,0.00,,,-99.99,,2013-03-03 16:52:00,
2013-03-03 10:01:00,42.0,24.0,-100.00,East,85,1.0,4.0,48,0.00,,,-99.99,,2013-03-03 17:01:00,
2013-03-03 10:11:00,44.0,23.0,-100.00,ENE,75,0.0,3.0,44,0.00,,,-99.99,,2013-03-03 17:11:00,
2013-03-03 10:22:00,43.0,22.0,-100.00,WNW,290,0.0,3.0,42,0.00,,,-99.99,,2013-03-03 17:22:00,
2013-03-03 10:32:00,42.0,21.0,-100.00,WNW,285,4.0,6.0,42,0.00,,,-99.99,,2013-03-03 17:32:00,
2013-03-03 10:42:00,41.0,21.0,-100.00,NW,320,2.0,6.0,43,0.00,,,-99.99,,2013-03-03 17:42:00,
2013-03-03 10:52:00,40.0,21.0,-100.00,WNW,295,6.0,9.0,45,0.00,,,-99.99,,2013-03-03 17:52:00,
2013-03-03 11:01:00,40.0,21.0,-100.00,West,260,2.0,6.0,46,0.00,,,-99.99,,2013-03-03 18:01:00,
2013-03-03 11:11:00,40.0,21.0,-100.00,West,260,2.0,6.0,46,0.00,,,-99.99,,2013-03-03 18:11:00,
2013-03-03 11:21:00,41.0,22.0,-100.00,WNW,295,4.0,6.0,46,0.00,,,-99.99,,2013-03-03 18:21:00,
2013-03-03 11:32:00,41.0,22.0,-100.00,West,280,4.0,7.0,46,0.00,,,-99.99,,2013-03-03 18:32:00,
2013-03-03 11:42:00,43.0,24.0,-100.00,West,270,1.0,6.0,45,0.00,,,-99.99,,2013-03-03 18:42:00,
2013-03-03 11:52:00,46.0,25.0,-100.00,SW,225,2.0,5.0,43,0.00,,,-99.99,,2013-03-03 18:52:00,
2013-03-03 12:02:00,48.0,24.0,-100.00,NE,55,6.0,21.0,38,0.00,,,-99.99,,2013-03-03 19:02:00,
2013-03-03 12:11:00,48.0,24.0,-100.00,SE,140,9.0,16.0,38,0.00,,,-99.99,,2013-03-03 19:11:00,
2013-03-03 12:21:00,49.0,23.0,-100.00,SSE,150,6.0,17.0,36,0.00,,,-99.99,,2013-03-03 19:21:00,
2013-03-03 12:32:00,49.0,23.0,-100.00,SE,145,11.0,19.0,35,0.00,,,-99.99,,2013-03-03 19:32:00,
2013-03-03 12:42:00,49.0,22.0,-100.00,NW,315,4.0,17.0,34,0.00,,,-99.99,,2013-03-03 19:42:00,
2013-03-03 12:51:00,49.0,22.0,-100.00,SW,215,2.0,9.0,34,0.00,,,-99.99,,2013-03-03 19:51:00,
2013-03-03 13:01:00,49.0,22.0,-100.00,SW,230,4.0,9.0,34,0.00,,,-99.99,,2013-03-03 20:01:00,
2013-03-03 13:11:00,48.0,21.0,-100.00,West,260,5.0,11.0,34,0.00,,,-99.99,,2013-03-03 20:11:00,
2013-03-03 13:21:00,49.0,22.0,-100.00,WSW,245,3.0,10.0,33,0.00,,,-99.99,,2013-03-03 20:21:00,
2013-03-03 13:32:00,49.0,22.0,-100.00,WNW,285,7.0,12.0,33,0.00,,,-99.99,,2013-03-03 20:32:00,
2013-03-03 13:42:00,49.0,22.0,-100.00,NW,320,7.0,16.0,34,0.00,,,-99.99,,2013-03-03 20:42:00,
2013-03-03 13:52:00,49.0,22.0,-100.00,WNW,295,11.0,16.0,33,0.00,,,-99.99,,2013-03-03 20:52:00,
2013-03-03 14:02:00,49.0,22.0,-100.00,WNW,285,10.0,18.0,34,0.00,,,-99.99,,2013-03-03 21:02:00,
2013-03-03 14:11:00,48.0,22.0,-100.00,WNW,295,9.0,15.0,34,0.00,,,-99.99,,2013-03-03 21:11:00,
2013-03-03 14:21:00,47.0,22.0,-100.00,WNW,290,11.0,18.0,35,0.00,,,-99.99,,2013-03-03 21:21:00,
2013-03-03 14:32:00,47.0,22.0,-100.00,West,280,8.0,16.0,36,0.00,,,-99.99,,2013-03-03 21:32:00,
2013-03-03 14:42:00,47.0,22.0,-100.00,West,270,5.0,12.0,36,0.00,,,-99.99,,2013-03-03 21:42:00,
2013-03-03 14:52:00,48.0,22.0,-100.00,South,175,4.0,14.0,36,0.00,,,-99.99,,2013-03-03 21:52:00,
2013-03-03 15:01:00,48.0,22.0,-100.00,SSW,205,4.0,12.0,36,0.00,,,-99.99,,2013-03-03 22:01:00,
2013-03-03 15:11:00,49.0,23.0,-100.00,South,175,3.0,9.0,35,0.00,,,-99.99,,2013-03-03 22:11:00,
2013-03-03 15:22:00,48.0,22.0,-100.00,WSW,255,7.0,12.0,35,0.00,,,-99.99,,2013-03-03 22:22:00,
2013-03-03 15:32:00,49.0,23.0,-100.00,WSW,245,5.0,10.0,35,0.00,,,-99.99,,2013-03-03 22:32:00,
2013-03-03 15:42:00,47.0,22.0,-100.00,WNW,290,8.0,15.0,36,0.00,,,-99.99,,2013-03-03 22:42:00,
2013-03-03 15:52:00,47.0,23.0,-100.00,WNW,295,6.0,10.0,37,0.00,,,-99.99,,2013-03-03 22:52:00,
2013-03-03 16:01:00,47.0,23.0,-100.00,West,280,6.0,11.0,38,0.00,,,-99.99,,2013-03-03 23:01:00,
2013-03-03 16:11:00,47.0,23.0,-100.00,WSW,255,2.0,9.0,38,0.00,,,-99.99,,2013-03-03 23:11:00,
2013-03-03 16:21:00,46.0,22.0,-100.00,West,280,5.0,11.0,38,0.00,,,-99.99,,2013-03-03 23:21:00,
2013-03-03 16:32:00,46.0,23.0,-100.00,West,270,6.0,11.0,39,0.00,,,-99.99,,2013-03-03 23:32:00,
2013-03-03 16:42:00,46.0,22.0,-100.00,West,265,3.0,12.0,39,0.00,,,-99.99,,2013-03-03 23:42:00,
2013-03-03 16:52:00,45.0,22.0,-100.00,SSW,210,4.0,12.0,40,0.00,,,-99.99,,2013-03-03 23:52:00,
2013-03-03 17:01:00,44.0,23.0,-100.00,West,280,4.0,12.0,41,0.00,,,-99.99,,2013-03-04 00:01:00,
2013-03-03 17:11:00,44.0,23.0,-100.00,West,275,5.0,11.0,43,0.00,,,-99.99,,2013-03-04 00:11:00,
2013-03-03 17:21:00,43.0,23.0,-100.00,West,280,5.0,12.0,45,0.00,,,-99.99,,2013-03-04 00:21:00,
2013-03-03 17:32:00,43.0,24.0,-100.00,West,275,4.0,11.0,47,0.00,,,-99.99,,2013-03-04 00:32:00,
2013-03-03 17:42:00,42.0,24.0,-100.00,WNW,285,9.0,15.0,48,0.00,,,-99.99,,2013-03-04 00:42:00,
2013-03-03 17:52:00,42.0,25.0,-100.00,NW,310,7.0,17.0,51,0.00,,,-99.99,,2013-03-04 00:52:00,
2013-03-03 18:01:00,41.0,27.0,-100.00,WNW,295,8.0,16.0,56,0.00,,,-99.99,,2013-03-04 01:01:00,
2013-03-03 18:11:00,40.0,28.0,-100.00,WNW,300,7.0,14.0,61,0.00,,,-99.99,,2013-03-04 01:11:00,
2013-03-03 18:21:00,40.0,29.0,-100.00,NW,325,5.0,13.0,66,0.00,,,-99.99,,2013-03-04 01:21:00,
2013-03-03 18:32:00,39.0,30.0,-100.00,NNW,330,4.0,10.0,70,0.00,,,-99.99,,2013-03-04 01:32:00,
2013-03-03 18:42:00,39.0,31.0,-100.00,NNW,330,6.0,11.0,74,0.00,,,-99.99,,2013-03-04 01:42:00,
2013-03-03 18:51:00,38.0,32.0,-100.00,NNW,340,3.0,7.0,77,0.00,,,-99.99,,2013-03-04 01:51:00,
2013-03-03 19:01:00,38.0,33.0,-100.00,West,275,1.0,6.0,80,0.00,,,-99.99,,2013-03-04 02:01:00,
2013-03-03 19:11:00,38.0,33.0,-100.00,North,10,2.0,4.0,82,0.00,,,-99.99,,2013-03-04 02:11:00,
2013-03-03 19:22:00,37.0,33.0,-100.00,SW,225,0.0,2.0,84,0.00,,,-99.99,,2013-03-04 02:22:00,
2013-03-03 19:32:00,37.0,33.0,-100.00,NW,310,0.0,0.0,85,0.00,,,-99.99,,2013-03-04 02:32:00,
2013-03-03 19:42:00,37.0,33.0,-100.00,NW,305,0.0,3.0,86,0.00,,,-99.99,,2013-03-04 02:42:00,
2013-03-03 19:52:00,36.0,33.0,-100.00,WNW,300,1.0,2.0,88,0.00,,,-99.99,,2013-03-04 02:52:00,
2013-03-03 20:01:00,37.0,34.0,-100.00,NNE,20,0.0,3.0,89,0.00,,,-99.99,,2013-03-04 03:01:00,
2013-03-03 20:11:00,36.0,33.0,-100.00,West,280,0.0,0.0,90,0.00,,,-99.99,,2013-03-04 03:11:00,
2013-03-03 20:21:00,36.0,33.0,-100.00,WNW,300,0.0,0.0,90,0.00,,,-99.99,,2013-03-04 03:21:00,
2013-03-03 20:32:00,35.0,33.0,-100.00,NNW,340,0.0,0.0,91,0.00,,,-99.99,,2013-03-04 03:32:00,
2013-03-03 20:42:00,35.0,33.0,-100.00,NW,325,0.0,0.0,91,0.00,,,-99.99,,2013-03-04 03:42:00,
2013-03-03 20:52:00,35.0,33.0,-100.00,SW,220,0.0,0.0,92,0.00,,,-99.99,,2013-03-04 03:52:00,
2013-03-03 21:01:00,35.0,33.0,-100.00,SW,220,0.0,0.0,92,0.00,,,-99.99,,2013-03-04 04:01:00,
2013-03-03 21:11:00,34.0,32.0,-100.00,SSE,150,0.0,0.0,92,0.00,,,-99.99,,2013-03-04 04:11:00,
2013-03-03 21:22:00,34.0,32.0,-100.00,SSE,155,0.0,0.0,93,0.00,,,-99.99,,2013-03-04 04:22:00,
2013-03-03 21:32:00,34.0,32.0,-100.00,SE,145,0.0,0.0,93,0.00,,,-99.99,,2013-03-04 04:32:00,
2013-03-03 21:42:00,34.0,32.0,-100.00,SSE,150,0.0,0.0,93,0.00,,,-99.99,,2013-03-04 04:42:00,
2013-03-03 21:51:00,34.0,33.0,-100.00,SE,125,0.0,0.0,94,0.00,,,-99.99,,2013-03-04 04:51:00,
2013-03-03 22:01:00,34.0,33.0,-100.00,East,80,0.0,0.0,94,0.00,,,-99.99,,2013-03-04 05:01:00,
2013-03-03 22:11:00,34.0,33.0,-100.00,ESE,110,0.0,0.0,94,0.00,,,-99.99,,2013-03-04 05:11:00,
2013-03-03 22:22:00,34.0,33.0,-100.00,SE,135,0.0,0.0,94,0.00,,,-99.99,,2013-03-04 05:22:00,
2013-03-03 22:31:00,34.0,32.0,-100.00,South,185,0.0,0.0,94,0.00,,,-99.99,,2013-03-04 05:31:00,
2013-03-03 22:42:00,34.0,33.0,-100.00,West,280,1.0,3.0,94,0.00,,,-99.99,,2013-03-04 05:42:00,
2013-03-03 22:52:00,34.0,33.0,-100.00,NW,325,0.0,3.0,94,0.00,,,-99.99,,2013-03-04 05:52:00,
2013-03-03 23:01:00,34.0,32.0,-100.00,SW,230,0.0,0.0,94,0.00,,,-99.99,,2013-03-04 06:01:00,
2013-03-03 23:11:00,34.0,32.0,-100.00,SW,230,0.0,0.0,94,0.00,,,-99.99,,2013-03-04 06:11:00,
2013-03-03 23:21:00,34.0,32.0,-100.00,ENE,60,0.0,0.0,94,0.00,,,-99.99,,2013-03-04 06:21:00,
2013-03-03 23:32:00,33.0,32.0,-100.00,West,260,0.0,0.0,95,0.00,,,-99.99,,2013-03-04 06:32:00,
2013-03-03 23:42:00,33.0,32.0,-100.00,WSW,255,0.0,1.0,95,0.00,,,-99.99,,2013-03-04 06:42:00,
2013-03-03 23:51:00,33.0,32.0,-100.00,NNW,340,0.0,2.0,95,0.00,,,-99.99,,2013-03-04 06:51:00,